Weather History for K9D7 - September, 2012

Change the Weather History Date:

Wednesday, September 19, 2012

  Actual Average Record
Temperature  
Mean Temperature 54 °F -  
Max Temperature 62 °F - - ()
Min Temperature 46 °F - - ()
Degree Days  
Heating Degree Days 11    
Growing Degree Days 4 (Base 50)    
Moisture  
Dew Point 35 °F    
Average Humidity 49    
Maximum Humidity 82    
Minimum Humidity 29    
Precipitation  
Precipitation 0.00 in - - ()
Sea Level Pressure  
Sea Level Pressure 29.78 in    
Wind  
Wind Speed 17 mph (NW)    
Max Wind Speed 31 mph    
Max Gust Speed 41 mph    
Visibility 10 miles    
Events      
T = Trace of Precipitation, MM = Missing Value Source: NWS Daily Summary

Daily Weather History Graph

Daily Weather History Graph

Search for Another Location

Airport or City:

Trip Planner

Search our weather history database for the weather conditions in past years. The results will help you decide how hot, cold, wet, or windy it might be!

Date:

Astronomy

Sep. 19, 2012 Rise Set
Actual Time 7:20 AM CDT 7:39 PM CDT
Civil Twilight 6:48 AM CDT 8:11 PM CDT
Nautical Twilight 6:11 AM CDT 8:48 PM CDT
Astronomical Twilight 5:33 AM CDT 9:26 PM CDT
Moon 11:57 AM CDT (9/19) 9:24 PM CDT (9/19)
Length of Visible Light 13h 22m
Length of Day
12h 19m
Waxing Crescent, 17% of the Moon is Illuminated
Sep 19
Waxing Crescent
Sep 22
First Quarter
Sep 29
Full
Oct 8
Last Quarter
Oct 15
New

Hourly Weather History & Observations

Time (CDT) Temp. Windchill Dew Point Humidity Pressure Visibility Wind Dir Wind Speed Gust Speed Precip Events Conditions
12:15 AM 62.6 °F - 42.8 °F 48% 29.60 in 10.0 mi West 11.5 mph - N/A   Partly Cloudy
12:55 AM 59.0 °F - 41.0 °F 51% 29.60 in 10.0 mi WNW 10.4 mph - N/A   Clear
1:15 AM 57.2 °F - 41.0 °F 55% 29.60 in 10.0 mi WNW 9.2 mph - N/A   Clear
1:35 AM 59.0 °F - 41.0 °F 51% 29.60 in 10.0 mi West 11.5 mph - N/A   Clear
1:55 AM 59.0 °F - 41.0 °F 51% 29.61 in 10.0 mi WNW 13.8 mph - N/A   Clear
2:15 AM 57.2 °F - 41.0 °F 55% 29.62 in 10.0 mi West 13.8 mph - N/A   Clear
2:35 AM 57.2 °F - 41.0 °F 55% 29.63 in 10.0 mi WNW 13.8 mph 21.9 mph N/A   Clear
2:55 AM 57.2 °F - 41.0 °F 55% 29.63 in 10.0 mi NW 15.0 mph - N/A   Clear
3:15 AM 57.2 °F - 41.0 °F 55% 29.63 in 10.0 mi NW 18.4 mph 24.2 mph N/A   Clear
3:35 AM 57.2 °F - 41.0 °F 55% 29.64 in 10.0 mi WNW 13.8 mph 19.6 mph N/A   Clear
3:55 AM 55.4 °F - 41.0 °F 58% 29.64 in 10.0 mi WNW 12.7 mph 18.4 mph N/A   Clear
4:15 AM 53.6 °F - 41.0 °F 62% 29.64 in 10.0 mi WNW 12.7 mph - N/A   Clear
4:55 AM 51.8 °F - 42.8 °F 71% 29.65 in 10.0 mi West 12.7 mph - N/A   Clear
5:15 AM 51.8 °F - 42.8 °F 71% 29.65 in 10.0 mi WNW 16.1 mph - N/A   Clear
5:35 AM 50.0 °F - 42.8 °F 76% 29.66 in 10.0 mi WNW 13.8 mph - N/A   Clear
5:55 AM 50.0 °F - 42.8 °F 76% 29.67 in 10.0 mi WNW 13.8 mph - N/A   Clear
6:15 AM 50.0 °F - 42.8 °F 76% 29.67 in 10.0 mi WNW 15.0 mph - N/A   Clear
6:35 AM 48.2 °F - 42.8 °F 82% 29.68 in 10.0 mi West 12.7 mph - N/A   Clear
6:55 AM 48.2 °F - 42.8 °F 82% 29.69 in 10.0 mi West 15.0 mph - N/A   Clear
7:15 AM 48.2 °F - 42.8 °F 82% 29.70 in 10.0 mi WNW 16.1 mph 21.9 mph N/A   Clear
7:35 AM 50.0 °F - 42.8 °F 76% 29.71 in 10.0 mi WNW 17.3 mph 24.2 mph N/A   Clear
8:15 AM 50.0 °F - 42.8 °F 76% 29.73 in 10.0 mi NW 18.4 mph 24.2 mph N/A   Clear
8:35 AM 51.8 °F - 41.0 °F 67% 29.73 in 10.0 mi NW 19.6 mph 28.8 mph N/A   Clear
8:55 AM 53.6 °F - 41.0 °F 62% 29.74 in 10.0 mi NW 27.6 mph 33.4 mph N/A   Scattered Clouds
9:15 AM 53.6 °F - 41.0 °F 62% 29.74 in 10.0 mi NW 24.2 mph 35.7 mph N/A   Scattered Clouds
9:55 AM 55.4 °F - 39.2 °F 54% 29.75 in 10.0 mi NW 29.9 mph 36.8 mph N/A   Mostly Cloudy
10:15 AM 53.6 °F - 39.2 °F 58% 29.76 in 10.0 mi NW 25.3 mph 34.5 mph N/A   Overcast
10:35 AM 55.4 °F - 39.2 °F 54% 29.77 in 10.0 mi NW 23.0 mph 36.8 mph N/A   Overcast
10:55 AM 55.4 °F - 39.2 °F 54% 29.78 in 10.0 mi NW 25.3 mph 39.1 mph N/A   Overcast
11:15 AM 55.4 °F - 37.4 °F 51% 29.78 in 10.0 mi NW 24.2 mph 39.1 mph N/A   Mostly Cloudy
11:35 AM 55.4 °F - 37.4 °F 51% 29.79 in 10.0 mi NW 26.5 mph 36.8 mph N/A   Mostly Cloudy
11:55 AM 57.2 °F - 37.4 °F 48% 29.80 in 10.0 mi NW 27.6 mph 34.5 mph N/A   Mostly Cloudy
12:15 PM 57.2 °F - 37.4 °F 48% 29.81 in 10.0 mi NW 24.2 mph 38.0 mph N/A   Mostly Cloudy
12:35 PM 57.2 °F - 37.4 °F 48% 29.81 in 10.0 mi NW 28.8 mph 35.7 mph N/A   Mostly Cloudy
12:55 PM 57.2 °F - 35.6 °F 44% 29.82 in 10.0 mi NW 26.5 mph 35.7 mph N/A   Mostly Cloudy
1:15 PM 57.2 °F - 35.6 °F 44% 29.82 in 10.0 mi NNW 25.3 mph 39.1 mph N/A   Mostly Cloudy
1:35 PM 59.0 °F - 33.8 °F 39% 29.82 in 10.0 mi NW 28.8 mph 40.3 mph N/A   Scattered Clouds
1:55 PM 59.0 °F - 32.0 °F 36% 29.82 in 10.0 mi NNW 26.5 mph 41.4 mph N/A   Partly Cloudy
2:15 PM 60.8 °F - 32.0 °F 34% 29.82 in 10.0 mi NNW 28.8 mph 40.3 mph N/A   Partly Cloudy
2:35 PM 62.6 °F - 32.0 °F 32% 29.82 in 10.0 mi NW 24.2 mph 36.8 mph N/A   Partly Cloudy
2:55 PM 62.6 °F - 32.0 °F 32% 29.83 in 10.0 mi NW 28.8 mph 35.7 mph N/A   Partly Cloudy
3:15 PM 62.6 °F - 32.0 °F 32% 29.83 in 10.0 mi NNW 28.8 mph 38.0 mph N/A   Partly Cloudy
3:35 PM 62.6 °F - 30.2 °F 30% 29.84 in 10.0 mi NNW 24.2 mph 39.1 mph N/A   Clear
3:55 PM 62.6 °F - 30.2 °F 30% 29.84 in 10.0 mi NNW 29.9 mph 38.0 mph N/A   Partly Cloudy
4:15 PM 62.6 °F - 32.0 °F 32% 29.84 in 10.0 mi NNW 26.5 mph 36.8 mph N/A   Partly Cloudy
4:35 PM 62.6 °F - 32.0 °F 32% 29.84 in 10.0 mi NW 29.9 mph 39.1 mph N/A   Clear
4:55 PM 60.8 °F - 32.0 °F 34% 29.85 in 9.0 mi NW 31.1 mph 38.0 mph N/A   Clear
5:15 PM 60.8 °F - 30.2 °F 31% 29.86 in 9.0 mi NW 28.8 mph 35.7 mph N/A   Clear
5:35 PM 60.8 °F - 30.2 °F 31% 29.87 in 5.0 mi NNW 27.6 mph 34.5 mph N/A   Haze
5:55 PM 59.0 °F - 30.2 °F 34% 29.87 in 10.0 mi NW 26.5 mph 34.5 mph N/A   Clear
6:15 PM 59.0 °F - 28.4 °F 31% 29.88 in 10.0 mi NW 23.0 mph 32.2 mph N/A   Clear
6:35 PM 57.2 °F - 28.4 °F 33% 29.88 in 10.0 mi NW 23.0 mph 31.1 mph N/A   Clear
6:55 PM 59.0 °F - 26.6 °F 29% 29.88 in 10.0 mi NNW 21.9 mph 34.5 mph N/A   Clear
7:15 PM 57.2 °F - 26.6 °F 31% 29.89 in 10.0 mi NNW 19.6 mph 25.3 mph N/A   Clear
7:35 PM 57.2 °F - 26.6 °F 31% 29.90 in 10.0 mi NNW 18.4 mph 28.8 mph N/A   Clear
7:55 PM 55.4 °F - 26.6 °F 33% 29.90 in 10.0 mi NW 13.8 mph 24.2 mph N/A   Clear
8:15 PM 55.4 °F - 26.6 °F 33% 29.91 in 10.0 mi NNW 15.0 mph - N/A   Clear
8:35 PM 53.6 °F - 26.6 °F 35% 29.92 in 10.0 mi NW 10.4 mph - N/A   Clear
8:55 PM 53.6 °F - 26.6 °F 35% 29.93 in 10.0 mi NW 10.4 mph - N/A   Clear
9:15 PM 51.8 °F - 26.6 °F 38% 29.92 in 10.0 mi NW 10.4 mph - N/A   Clear
9:35 PM 50.0 °F - 28.4 °F 43% 29.93 in 10.0 mi NW 9.2 mph - N/A   Clear
9:55 PM 48.2 °F - 30.2 °F 50% 29.94 in 10.0 mi WNW 9.2 mph - N/A   Clear
10:15 PM 48.2 °F - 28.4 °F 46% 29.93 in 10.0 mi NW 9.2 mph - N/A   Clear
10:35 PM 48.2 °F - 28.4 °F 46% 29.93 in 10.0 mi NW 11.5 mph - N/A   Clear
10:55 PM 48.2 °F - 28.4 °F 46% 29.94 in 10.0 mi WNW 10.4 mph - N/A   Clear
11:35 PM 46.4 °F 41.5 °F 32.0 °F 57% 29.95 in 10.0 mi WNW 10.4 mph - N/A   Clear
11:55 PM 46.4 °F 41.5 °F 32.0 °F 57% 29.95 in 10.0 mi WNW 10.4 mph - N/A   Clear